GFSSW_700_rhum_126.txt.gz
RH
77 78 78 76 72 69 70 75 75 69 64 57 46 36 36 27 31 32 36 34 34 38 40 40 41 40 41 38 31 31 31 30 30 29 28 29 25 23 24 25 27 27 28 29 31
76 75 77 75 73 70 77 76 77 73 68 62 48 36 38 33 32 32 35 27 29 30 34 40 42 37 36 34 30 32 32 32 31 32 32 29 26 23 23 23 26 27 28 29 31
76 76 77 75 74 70 79 78 79 79 70 63 48 46 37 34 34 36 26 20 17 21 29 30 38 40 41 33 28 30 30 28 27 28 22 22 25 25 23 23 22 23 25 28 29
76 76 76 75 71 72 84 83 84 82 71 60 54 56 43 43 37 35 32 27 27 18 14 25 34 34 37 37 24 26 25 23 22 21 22 21 25 24 24 22 20 19 19 19 22
69 68 70 74 82 78 87 90 91 86 73 62 57 53 54 49 43 39 37 35 20 22 18 21 33 32 33 30 30 29 28 25 23 22 20 19 21 23 23 22 17 17 16 14 8
80 84 89 86 96 98 89 94 95 87 83 69 57 50 49 49 42 34 25 26 26 25 29 35 30 29 29 31 30 28 29 28 27 27 24 24 23 24 21 18 16 16 17 15 11
99 99 100 100 100 99 98 98 99 87 79 60 65 54 37 54 43 46 26 20 24 17 20 34 31 28 28 27 32 29 28 26 21 24 23 23 22 20 19 18 17 17 16 18 17
100 100 100 100 100 96 98 97 81 47 58 42 59 59 38 41 45 28 23 24 17 22 11 22 36 32 30 30 29 28 26 25 23 26 24 24 23 20 19 18 18 18 18 21 19
100 100 100 98 90 58 93 72 57 45 95 74 53 59 41 35 41 30 35 31 32 11 10 17 32 28 28 30 30 26 26 26 27 27 27 24 22 20 19 20 19 18 20 19 20
97 100 95 80 74 45 100 91 83 40 87 92 80 64 44 47 47 39 34 12 16 11 9 16 30 27 25 33 30 30 30 30 31 30 28 26 27 27 26 23 21 20 22 22 22
10 18 10 10 14 30 89 99 88 41 72 82 61 49 44 24 33 40 30 21 18 21 17 26 33 22 25 35 34 32 32 34 36 34 30 26 27 28 26 24 22 22 22 22 22
10 10 12 10 9 12 32 21 74 40 59 58 42 21 13 13 11 7 11 23 29 33 34 33 34 28 36 37 37 34 35 35 35 31 31 29 29 28 25 24 24 24 24 25 25
12 12 12 12 13 16 14 15 68 67 85 19 12 10 6 7 8 8 20 24 28 32 35 44 33 39 41 42 42 38 34 35 31 30 29 28 28 27 28 26 26 27 28 28 30
8 9 11 12 14 17 18 33 86 72 63 15 9 11 12 13 16 23 25 31 47 29 42 47 36 39 40 42 40 32 31 30 29 29 30 31 33 27 29 29 31 31 31 33 37
3 3 3 5 9 12 29 36 67 73 53 18 23 25 24 23 25 24 26 28 30 44 46 37 37 37 38 36 32 30 29 30 30 30 30 32 31 26 29 34 41 43 45 50 52
3 3 16 3 3 12 21 52 92 83 79 20 36 32 32 30 32 30 26 25 30 56 57 42 41 38 32 32 34 30 30 30 31 31 39 32 35 34 36 44 47 57 67 72 70
5 5 4 9 71 100 91 95 100 99 24 30 28 29 36 37 42 36 32 33 41 47 48 42 38 32 34 34 32 29 32 39 51 58 54 38 41 52 46 53 63 78 77 66 52
6 6 5 8 52 63 73 73 94 52 24 42 41 39 40 41 42 41 36 36 37 36 34 36 36 33 33 34 33 32 32 38 63 68 56 43 42 50 43 61 76 81 69 68 65
9 8 6 8 42 98 79 99 83 50 46 28 48 48 46 43 38 39 38 34 33 34 36 37 37 36 34 33 38 38 39 38 38 40 51 48 56 57 52 67 75 81 81 79 63
12 10 7 8 90 89 98 69 52 27 57 60 58 49 44 43 42 44 38 38 38 38 36 40 40 40 38 39 36 37 38 39 40 59 60 47 44 49 63 77 86 82 68 69 64
14 12 8 9 50 99 98 98 63 60 65 54 58 67 58 47 41 40 40 41 41 40 40 42 42 41 40 39 39 37 38 40 38 38 63 76 52 40 43 57 66 77 67 67 63
20 20 12 16 99 99 80 60 53 74 79 68 50 70 72 63 52 42 41 41 42 43 41 42 42 42 42 41 39 35 36 48 44 49 46 48 53 43 47 49 67 70 76 75 69
90 39 30 27 98 72 84 58 89 82 79 77 70 67 74 72 51 51 48 45 45 44 47 46 45 42 41 40 38 38 44 51 60 71 62 62 58 45 49 54 63 76 80 74 79
100 99 95 97 46 87 53 78 74 86 90 78 79 68 76 74 56 52 47 46 45 45 47 48 47 46 47 45 47 49 49 52 58 76 69 65 57 50 58 65 80 84 78 80 88
100 91 73 68 88 44 90 47 71 66 66 86 84 74 80 81 63 60 68 49 46 49 50 51 51 53 54 54 52 52 40 22 35 39 83 66 72 74 78 86 86 79 85 90 91
98 82 95 46 49 51 52 64 60 51 81 77 72 72 84 64 77 81 59 51 50 53 57 58 57 60 59 50 31 36 25 40 43 41 41 58 64 68 76 82 85 83 88 92 95
79 97 84 47 59 71 60 11 15 72 79 41 62 90 89 72 56 53 52 52 55 55 57 61 64 66 60 42 80 82 40 53 60 42 29 47 41 62 79 93 94 90 91 95 96

GFSSW_700_rhum_132.txt.gz
RH
66 66 68 66 65 65 64 63 58 53 50 51 56 53 52 39 29 27 32 32 29 30 34 36 38 42 43 42 39 37 34 33 31 30 30 31 29 26 24 25 26 27 29 29 28
70 71 71 70 70 70 67 64 61 52 49 51 57 61 54 44 30 27 27 28 26 21 24 25 34 38 37 36 35 36 34 34 34 34 33 31 30 28 27 26 25 24 24 23 24
74 75 75 74 72 71 70 64 58 48 46 48 56 64 60 50 33 28 30 26 19 17 14 11 17 26 35 36 34 32 34 35 34 33 31 28 28 27 27 26 24 23 22 22 23
77 75 77 76 75 74 70 61 52 49 48 57 58 67 68 53 42 36 34 28 25 22 18 22 12 17 27 33 31 28 29 31 30 29 29 26 25 24 24 23 23 22 23 23 20
71 74 74 75 70 67 62 63 56 56 62 65 73 70 69 60 37 40 34 31 29 25 19 22 19 19 22 26 28 27 23 26 27 27 28 27 26 24 24 24 22 23 23 21 17
58 62 58 58 55 59 62 64 66 74 75 71 74 77 72 53 42 35 47 40 31 18 17 13 12 13 16 19 22 22 23 22 22 27 28 26 24 25 24 24 23 21 19 18 17
68 70 63 66 74 82 79 84 85 84 77 80 78 78 69 54 46 37 44 34 35 22 16 14 14 11 10 15 16 18 16 18 18 22 26 26 23 23 22 22 21 19 18 18 17
98 93 96 94 92 90 92 97 94 95 88 83 78 63 42 43 31 42 37 38 32 24 24 23 19 9 10 15 18 18 19 16 24 27 29 29 23 25 20 20 19 18 18 18 20
100 99 100 98 99 96 100 95 100 99 95 77 75 59 45 48 39 36 30 27 29 23 34 28 10 11 11 19 20 18 20 23 23 27 29 32 32 30 28 24 21 21 20 20 21
96 99 96 98 61 86 98 100 100 94 70 68 61 53 44 47 46 42 30 28 28 28 29 21 15 10 11 18 21 24 30 31 29 26 30 32 33 32 32 30 28 28 28 28 26
80 66 71 66 26 95 100 99 100 92 75 75 66 55 43 48 52 42 38 37 32 27 14 18 22 12 17 26 32 32 33 38 34 33 36 32 33 33 32 31 31 30 29 29 28
19 24 14 11 11 47 100 99 99 99 83 61 68 54 52 52 60 40 35 37 19 17 18 22 23 20 24 30 33 35 39 37 39 36 36 35 34 34 33 33 30 28 27 26 27
11 12 10 10 10 16 61 67 79 58 62 25 26 28 21 41 25 12 28 28 31 18 12 25 29 28 33 33 35 38 40 42 43 36 34 33 32 31 30 30 28 27 28 27 28
14 13 11 12 12 11 11 12 17 90 42 17 9 12 10 8 10 8 12 20 42 24 27 36 34 33 38 35 38 47 40 42 35 33 32 32 35 30 29 29 30 27 28 30 31
13 14 14 15 13 12 12 16 23 26 70 17 18 16 15 13 16 12 11 12 17 21 24 35 36 34 36 38 42 42 39 34 32 32 32 34 33 28 31 30 30 31 32 35 41
7 8 9 11 12 13 15 22 45 51 78 17 24 20 15 20 22 24 25 22 28 31 42 43 47 42 35 38 41 43 44 43 41 36 42 33 33 30 31 31 34 35 39 40 39
3 4 4 5 8 9 15 43 87 99 26 25 24 23 23 28 26 34 32 34 37 48 43 39 35 37 45 47 46 42 41 40 52 52 48 35 40 34 34 36 38 39 39 41 50
4 4 4 4 10 13 28 98 92 49 30 36 38 36 33 37 34 39 35 37 35 34 39 38 35 30 30 34 35 35 36 38 51 62 48 40 45 34 36 39 41 41 40 52 50
8 6 6 5 32 46 55 100 61 24 42 27 47 44 44 45 51 46 47 42 39 39 39 38 32 33 34 34 34 35 34 34 37 39 54 38 37 38 39 40 36 36 40 47 40
12 10 7 7 59 84 95 94 35 30 55 40 38 43 43 42 51 51 49 40 38 40 39 36 35 36 36 36 37 37 37 40 41 63 63 47 45 44 41 41 40 38 42 40 44
20 20 10 15 99 95 98 88 42 39 62 60 36 48 49 46 46 48 44 38 31 31 38 37 38 38 40 39 37 38 40 41 40 40 68 62 51 41 41 39 39 40 45 44 53
76 35 16 79 77 100 94 83 90 57 80 73 58 60 66 58 56 50 47 44 42 39 40 38 38 39 40 41 41 41 41 41 40 44 43 46 48 43 44 44 44 44 46 52 58
100 57 31 43 99 78 99 78 64 56 76 82 60 60 62 60 66 65 65 56 47 44 42 41 40 43 44 45 43 43 43 43 43 43 42 62 56 48 48 47 50 56 60 62 72
99 100 89 65 46 78 57 49 70 73 100 76 84 78 68 62 59 68 62 59 54 52 45 43 43 45 47 45 47 47 47 45 46 51 54 58 54 48 46 52 54 51 58 73 80
97 95 88 97 48 28 96 77 49 82 78 85 89 93 85 83 76 71 66 64 62 59 52 47 46 46 46 47 50 49 50 55 58 54 63 49 57 24 27 27 26 39 34 61 77
94 95 95 72 63 42 82 64 49 62 98 94 100 98 85 78 74 74 74 74 76 64 51 48 57 51 54 56 54 58 58 58 53 55 45 39 28 17 25 56 54 46 37 62 82
89 84 100 84 68 90 33 22 39 60 61 64 79 95 96 86 83 83 88 89 87 82 82 76 77 94 86 64 64 62 53 46 37 27 61 73 56 58 61 53 38 46 66 91 97

GFSSW_700_rhum_138.txt.gz
RH
63 61 62 59 60 60 59 57 55 52 50 43 35 31 27 27 31 34 39 31 24 21 21 20 25 32 32 31 37 39 33 30 32 31 32 27 26 26 26 24 25 26 27 28 28
66 64 67 64 65 63 63 60 59 56 52 45 37 32 30 27 33 36 39 37 28 22 22 18 15 22 32 34 37 38 35 34 34 33 31 30 30 28 26 25 25 24 24 24 24
70 66 69 68 68 66 64 64 60 57 52 43 35 31 32 32 35 44 43 37 31 24 22 17 14 11 15 26 33 33 34 35 34 34 34 33 32 31 29 24 26 25 24 23 22
65 69 69 69 69 70 68 66 60 56 52 40 32 29 35 44 64 57 53 47 32 28 26 21 17 20 14 15 19 28 31 33 33 33 33 31 29 27 26 25 26 26 24 24 22
56 60 67 68 69 72 72 70 62 54 44 37 32 33 39 50 57 60 62 55 34 31 28 24 22 20 21 18 18 22 21 24 25 25 26 25 26 27 25 26 26 26 25 24 24
49 51 57 62 64 69 71 65 56 48 42 33 34 41 49 52 62 62 66 52 35 38 32 21 17 14 13 12 15 14 14 16 19 21 20 22 23 24 21 22 22 23 24 24 22
61 54 49 51 53 58 59 56 50 45 43 43 46 59 55 65 65 69 64 50 38 43 36 27 16 15 14 12 12 11 13 15 13 14 16 15 23 20 21 23 22 22 22 21 20
87 78 66 66 62 66 63 62 65 63 62 71 73 67 54 66 69 68 59 51 51 40 37 32 25 18 14 14 12 11 11 19 25 16 16 19 21 22 22 23 24 25 25 24 24
100 97 91 94 91 87 90 94 93 84 82 75 68 70 65 62 67 52 44 44 45 35 41 40 32 22 25 22 24 14 14 22 24 18 23 20 27 28 25 26 27 29 30 30 30
100 98 93 90 95 99 100 100 99 99 87 75 73 74 77 67 61 50 45 46 40 42 40 36 37 28 25 23 17 19 21 21 21 29 27 28 28 31 28 30 30 30 30 31 31
100 100 100 100 100 99 100 100 99 90 81 70 84 73 69 66 63 53 49 42 40 45 52 38 40 32 26 18 17 21 27 26 25 31 23 32 31 31 31 31 32 32 33 32 28
99 100 99 100 99 99 100 100 99 94 94 71 68 78 79 76 78 76 73 62 49 47 36 37 39 40 21 14 16 30 32 29 33 26 31 34 32 32 33 34 33 32 28 25 26
31 73 91 72 98 90 96 99 90 70 63 37 53 56 69 75 70 78 82 81 62 57 43 52 50 36 26 20 25 36 33 32 36 37 37 35 27 26 28 26 26 23 21 25 27
29 18 23 25 41 64 64 93 87 50 81 70 43 46 41 39 38 50 51 73 64 57 64 65 58 37 28 38 36 32 40 38 40 39 26 33 22 23 34 25 22 22 24 24 26
15 14 15 18 17 19 29 30 31 23 45 26 33 32 27 22 31 19 38 84 78 72 62 49 37 26 30 40 45 43 35 43 40 36 35 31 31 21 25 32 35 22 27 27 31
14 15 16 16 16 15 16 18 25 42 26 22 22 23 18 19 26 22 22 37 61 86 81 59 67 48 40 34 36 40 41 43 43 38 32 25 28 20 27 30 32 30 31 33 36
10 12 14 16 16 17 17 25 74 50 29 29 25 21 25 23 29 30 26 32 49 73 67 67 66 54 39 43 41 44 45 34 32 33 25 33 29 23 26 35 31 34 35 34 34
6 7 9 16 15 18 27 56 75 25 35 31 22 26 54 32 59 38 60 77 57 61 51 60 50 56 48 48 47 52 44 35 31 22 20 38 28 23 28 30 34 34 35 36 37
10 6 6 7 12 26 57 100 43 32 32 30 31 56 62 43 52 48 69 64 56 38 38 39 36 36 30 35 58 51 44 42 40 32 35 24 21 24 29 33 32 33 39 41 39
20 12 8 19 26 52 91 81 67 43 36 25 34 36 42 51 46 48 58 40 42 45 43 38 41 35 33 32 38 38 38 40 38 40 33 22 22 26 36 37 36 37 40 42 43
71 56 10 58 89 76 97 53 74 81 55 42 45 42 44 51 46 50 49 40 41 42 42 45 41 45 36 38 38 41 41 39 39 37 34 36 36 36 37 38 34 39 44 49 46
88 73 22 76 100 93 97 45 77 94 72 66 56 61 49 40 44 54 51 44 40 35 39 43 45 44 40 40 35 38 39 42 45 37 40 38 47 34 36 33 38 45 50 55 52
93 93 58 88 99 98 87 60 84 89 92 85 65 62 58 50 51 53 53 50 43 41 40 39 46 44 47 44 41 41 44 45 50 52 49 56 56 45 46 43 51 53 47 48 40
93 96 98 72 97 97 66 60 89 86 99 92 88 66 64 67 59 56 56 55 52 48 47 45 42 46 40 44 51 52 46 46 54 57 50 50 56 42 61 58 57 71 43 33 30
96 95 77 90 79 94 99 96 92 100 89 94 96 86 71 72 74 80 76 64 62 63 61 65 71 61 55 56 58 59 54 60 52 54 59 60 60 58 58 55 40 54 55 50 43
97 88 87 99 53 100 96 97 100 100 96 95 95 64 83 94 94 89 90 86 74 69 72 73 84 59 54 52 50 50 55 63 63 64 66 57 59 59 44 33 43 53 55 60 47
96 96 79 96 93 97 82 78 89 98 98 99 90 80 87 93 94 96 80 86 94 81 78 77 68 59 68 74 78 76 51 52 46 53 66 55 49 51 47 32 44 55 61 64 69

GFSSW_700_rhum_144.txt.gz
RH
58 57 58 58 56 55 55 56 53 50 46 42 40 40 34 29 23 21 23 19 17 18 20 21 15 18 24 26 29 31 29 22 18 18 22 24 22 22 21 23 23 29 43 41 41
61 60 59 60 59 58 58 57 56 53 50 46 42 41 38 30 24 20 16 18 18 23 27 28 16 14 17 25 28 28 25 21 25 25 25 25 24 24 23 24 23 24 27 40 41
64 65 63 61 61 62 62 60 59 55 54 49 45 41 38 31 22 34 38 41 41 34 31 27 18 14 16 20 23 25 25 28 28 27 25 24 24 23 22 26 36 35 26 25 26
62 64 65 64 65 63 63 62 60 56 55 51 46 38 35 31 34 63 43 40 41 44 44 32 20 24 23 19 19 20 23 27 26 26 27 28 25 24 24 29 26 24 24 24 25
50 55 59 59 59 60 60 59 58 53 51 46 40 35 30 30 28 35 24 30 37 47 48 35 23 28 25 21 20 20 18 20 25 24 25 28 26 26 27 26 26 27 27 26 26
47 47 48 50 50 50 49 50 50 46 46 43 39 35 32 24 46 27 27 40 46 52 52 31 28 28 26 26 24 25 21 21 20 21 22 21 23 25 25 23 22 22 21 21 20
46 49 47 48 46 46 45 44 45 43 44 41 40 36 31 23 34 40 32 51 51 56 51 32 26 22 28 26 24 16 15 17 18 18 19 21 20 24 23 18 14 14 15 17 18
79 83 58 56 54 50 49 46 45 45 45 41 42 43 29 29 31 44 50 52 56 59 49 35 30 26 22 25 24 17 18 17 14 17 20 17 16 22 21 21 21 19 18 18 20
100 100 98 95 86 83 80 77 71 66 66 64 59 66 45 46 46 50 50 56 64 58 42 37 35 32 34 22 23 20 16 14 17 20 19 19 24 24 23 24 26 20 19 20 22
100 100 100 94 88 93 99 92 98 91 85 90 78 90 62 61 90 60 56 61 76 62 43 38 33 35 33 27 19 15 18 15 13 21 20 19 19 30 25 26 28 28 28 23 25
100 100 100 100 100 99 99 99 99 99 91 71 80 87 99 87 75 72 66 58 56 60 48 48 47 34 27 23 19 21 19 18 15 20 22 23 23 19 30 38 37 40 40 30 27
99 100 100 100 100 100 100 100 100 100 98 97 79 92 89 97 90 82 66 61 61 58 54 51 46 36 28 30 26 25 20 18 16 15 18 23 23 20 22 35 43 45 47 47 33
93 96 99 99 99 100 100 100 100 100 99 95 78 78 72 89 99 92 80 63 60 58 49 47 40 37 33 32 30 26 23 20 18 18 23 26 25 23 23 30 41 43 48 52 37
49 43 25 50 98 99 99 99 99 98 98 86 69 64 72 99 98 97 96 84 71 59 53 50 44 44 41 39 33 32 27 21 21 22 21 20 21 18 22 29 39 43 31 36 21
13 13 16 16 44 42 90 92 98 98 94 54 72 78 73 87 76 70 65 88 81 67 62 57 50 48 46 43 46 42 32 28 26 28 27 24 22 18 17 30 40 37 24 19 16
11 13 16 41 55 85 67 89 96 96 89 54 66 69 62 80 81 65 77 87 90 86 73 58 50 50 52 46 41 33 33 32 33 29 30 24 21 19 19 24 32 41 44 28 31
13 10 14 69 84 96 79 88 98 92 56 47 47 50 52 67 79 73 64 68 80 80 80 60 53 55 47 41 37 37 35 32 35 34 34 24 21 19 21 25 28 36 44 51 28
32 11 10 16 95 80 95 97 96 67 54 33 37 43 52 53 62 71 60 62 73 73 61 64 58 57 57 52 38 37 34 30 31 33 26 21 21 27 24 28 31 32 34 27 19
89 24 9 11 56 91 99 98 86 69 48 41 37 43 49 49 50 61 59 54 56 75 63 37 44 41 50 53 41 32 34 29 31 33 37 32 26 31 32 36 34 27 27 31 35
96 96 16 11 51 98 98 97 64 62 56 45 40 43 39 42 47 53 50 48 51 51 56 49 44 38 42 45 46 36 38 44 41 43 40 25 19 33 42 45 52 46 49 61 64
98 98 36 17 60 100 97 94 53 61 58 50 44 35 33 44 58 52 42 39 47 48 51 51 46 41 44 45 42 41 45 40 37 35 36 39 42 36 42 45 47 43 47 50 55
98 96 74 52 81 100 99 73 45 64 58 74 61 51 42 38 34 38 47 37 44 50 54 53 48 43 41 37 36 40 47 42 41 35 31 32 38 38 45 54 52 45 45 59 65
97 90 95 83 69 98 92 56 53 64 64 91 82 59 56 47 34 35 52 53 46 50 55 57 54 51 46 43 39 37 38 38 36 37 44 55 52 47 43 51 53 55 58 79 71
97 98 98 98 67 62 85 69 69 51 82 83 91 81 62 49 48 49 42 50 59 50 42 53 50 48 47 41 50 45 39 38 36 39 44 44 46 39 43 43 45 47 49 56 59
97 96 96 95 85 68 80 92 96 95 81 85 93 79 91 80 62 52 51 66 61 54 42 52 51 51 43 47 54 62 69 57 42 39 45 47 47 42 43 44 46 51 53 54 57
96 96 96 96 68 61 84 93 76 74 81 82 88 86 94 90 95 88 91 90 72 52 46 46 59 56 51 48 59 65 63 58 63 75 59 51 46 36 50 48 46 47 50 48 50
97 96 97 90 95 98 68 36 76 96 80 76 75 81 91 81 84 96 88 96 87 64 54 60 73 72 73 66 73 93 64 58 55 53 52 48 43 46 49 45 45 48 52 51 48

GFSSW_700_rhum_147.txt.gz
RH
59 58 57 54 54 55 54 52 49 47 43 42 41 37 35 28 25 26 17 13 11 9 9 17 23 16 10 18 25 29 31 24 24 24 23 22 22 21 20 23 31 36 39 36 39
61 60 60 60 58 56 57 55 53 50 49 45 43 39 37 31 25 24 18 16 12 16 15 20 26 18 12 18 29 28 26 25 28 25 24 23 23 23 22 21 21 22 29 33 31
63 62 62 64 62 60 58 59 56 54 52 48 44 39 36 34 26 27 20 26 28 32 34 34 27 21 12 22 24 27 23 27 28 27 25 25 24 23 23 25 24 23 23 23 24
58 63 65 65 65 65 63 61 59 56 54 52 45 37 34 34 28 30 21 16 20 23 30 36 39 19 20 20 20 19 24 23 27 27 25 25 24 24 24 25 25 25 24 24 24
49 53 58 61 62 64 61 59 59 57 55 48 42 35 29 30 22 26 17 16 18 21 34 43 40 25 27 22 23 20 18 19 22 23 25 27 26 25 24 24 29 29 28 27 26
45 45 48 50 51 52 54 51 49 46 46 42 36 32 33 23 23 27 18 20 24 34 43 47 33 26 26 25 25 23 21 21 20 17 16 15 27 27 27 27 26 26 27 27 25
43 43 45 48 48 48 47 45 43 41 40 37 36 34 30 20 28 33 21 18 36 42 49 48 44 29 26 24 23 23 22 22 20 17 21 21 20 24 20 20 20 16 13 12 13
87 62 50 48 49 48 46 45 44 40 38 39 39 39 26 17 24 18 24 23 36 46 55 56 45 28 24 22 25 24 22 14 9 16 18 19 15 17 18 18 17 18 20 19 14
100 100 100 99 66 89 66 69 65 66 63 60 59 60 32 29 34 39 39 37 51 51 60 56 43 34 28 23 20 16 16 14 14 15 18 18 20 19 21 22 21 22 20 20 20
100 100 100 100 100 100 97 97 95 87 81 76 72 78 50 59 64 49 44 54 58 66 71 56 45 39 29 34 28 15 21 19 18 17 18 19 20 20 24 25 25 23 22 24 23
100 100 100 100 100 100 99 93 91 94 82 72 70 72 79 85 84 76 71 65 69 84 75 58 45 32 19 24 15 16 22 18 18 20 20 21 21 22 25 25 26 23 26 26 26
99 100 100 100 99 99 100 100 100 98 98 84 69 74 55 78 92 88 78 70 65 62 73 54 50 33 26 29 31 27 22 19 17 20 19 20 20 18 22 23 25 28 33 34 32
95 100 99 99 99 99 99 99 100 100 99 88 68 60 54 72 90 85 86 68 68 72 68 53 36 41 36 32 33 30 26 24 21 20 19 22 24 23 20 23 34 40 42 44 41
14 18 42 62 96 98 97 98 99 98 97 90 65 55 57 61 84 91 85 83 75 73 59 56 46 42 41 40 33 31 30 28 26 22 21 21 25 22 22 22 32 43 46 50 44
14 14 14 14 20 46 91 93 78 88 97 61 67 74 63 58 78 72 75 89 94 67 61 56 52 50 48 45 41 37 34 36 35 24 23 23 27 25 21 25 34 41 43 48 34
20 16 13 13 14 59 95 98 93 94 95 54 59 71 71 61 74 72 65 87 84 97 85 69 59 57 54 50 46 47 47 37 33 31 39 32 29 24 20 19 33 40 42 41 25
43 25 14 12 30 99 94 97 97 97 60 52 54 62 67 74 64 86 78 94 97 97 99 85 70 63 56 52 52 46 40 39 44 44 47 26 28 25 22 21 23 30 38 36 35
93 73 22 11 68 82 97 98 98 63 50 42 48 47 51 58 74 88 91 72 89 95 85 93 86 80 64 56 48 37 35 37 46 55 44 33 29 30 25 25 35 38 38 40 38
100 92 57 15 60 95 99 98 79 60 55 47 62 47 46 49 58 67 92 96 71 64 86 97 72 60 59 54 55 48 40 38 33 35 42 34 33 33 31 32 38 38 40 28 26
98 98 60 52 52 100 99 98 66 53 50 54 69 60 47 48 56 64 67 65 64 56 73 87 89 50 43 47 56 56 39 37 36 53 57 38 33 32 35 34 35 34 31 34 36
98 98 62 71 55 100 99 100 80 61 57 62 66 71 52 44 41 76 64 59 47 45 56 61 73 68 44 46 53 58 59 37 42 38 57 66 48 40 37 38 44 46 44 48 47
97 97 63 95 99 85 98 85 45 76 66 62 66 65 59 53 42 49 82 62 45 47 51 55 61 69 53 43 45 46 41 39 42 41 41 40 41 41 46 50 50 50 47 54 55
98 96 99 99 99 68 87 65 96 97 72 67 59 64 67 64 58 45 53 45 46 50 54 73 83 50 46 42 39 42 40 43 41 41 36 54 51 49 48 48 45 46 54 59 66
97 99 96 97 87 72 37 51 62 49 98 88 62 65 70 63 56 53 48 43 53 57 55 61 64 64 54 50 40 36 35 37 46 45 42 39 37 41 43 47 46 45 45 50 49
97 96 94 97 98 89 69 29 39 95 92 92 84 71 70 85 63 57 59 73 62 65 73 69 59 56 49 48 46 42 36 34 37 41 45 41 41 41 43 43 43 42 44 44 48
98 96 97 90 96 100 90 63 63 33 83 88 84 62 73 77 79 57 57 64 71 64 62 71 73 55 52 50 53 56 46 48 49 54 55 55 47 52 49 46 43 48 48 46 46
86 94 97 95 97 96 92 50 46 43 83 73 72 67 89 72 76 90 85 70 82 76 67 59 61 58 52 41 64 67 45 59 53 46 59 57 52 48 50 48 47 50 46 46 46